Regional Weather Roundup
Issued by NWS

Home | Current Version | Previous Version | Text Only | Print | Product List | Glossary Off
Versions: 1 2 3 4 5 6 7 8 9 10 11 12 13 14 15 16 17 18 19 20 21 22 23 24 25 26 27 28 29 30 31 32 33 34 35 36 37 38 39 40 41 42 43 44 45 46 47 48 49 50

000
ASUS45 KCYS 250110
RWRWY

WYOMING REGIONAL WEATHER ROUNDUP
NATIONAL WEATHER SERVICE CHEYENNE WY
700 PM MDT THU JUL 24 2014

NOTE:  "FAIR" INDICATES FEW OR NO CLOUDS BELOW 12,000 FEET
WITH NO SIGNIFICANT WEATHER AND/OR OBSTRUCTIONS TO VISIBILITY.

WYZ001-250200-
YELLOWSTONE NATIONAL PARK

CITY           SKY/WX    TMP DP  RH WIND       PRES   REMARKS
LK YELLOWSTONE   N/A     66  24  20 VRB7G20   30.24R
W YELLOWSTONE  NOT AVBL

$$
WYZ002>013-054>058-071-098>099-250200-
NORTHERN WYOMING

CITY           SKY/WX    TMP DP  RH WIND       PRES   REMARKS
JACKSON        NOT AVBL
CODY           NOT AVBL
GREYBULL       SUNNY     96  19   6 W25G33    29.80R
WORLAND        SUNNY     94  30  10 SW15G24   29.81S
SHERIDAN       SUNNY     93  36  13 NW20      29.77R
BUFFALO        MOSUNNY   93  26   9 NW16G25   29.87S
GILLETTE       SUNNY     95  47  19 NW16G26   29.77R HX  91
HULETT         FAIR      88  63  42 MISG      29.76
NEWCASTLE      FAIR      97  32  10 SW17      29.77  HX  91

$$
WYZ014>020-022>026-101>103-250200-
CENTRAL WYOMING

CITY           SKY/WX    TMP DP  RH WIND       PRES   REMARKS
BIG PINEY      SUNNY     81  28  14 W15G22    30.17S
PINEDALE       CLEAR     77  28  16 NW18      30.19R
DUBOIS         FAIR      75  21  13 W15G29    30.15R
LANDER         SUNNY     90  30  11 W10G16    29.96S
RIVERTON       SUNNY     92  28  10 W16       29.95F
CASPER         MOSUNNY   90  33  13 SW15      29.91F
DOUGLAS        MOSUNNY   92  42  17 W14       29.90F

$$
WYZ021-027>030-104>119-250200-
SOUTHERN WYOMING

CITY           SKY/WX    TMP DP  RH WIND       PRES   REMARKS
EVANSTON       MOSUNNY   81  32  17 W18G25    30.19S
KEMMERER       CLEAR     79  28  15 W17G28    30.20S
FORT BRIDGER   FAIR      86  28  12 W15G30    30.20S
ROCK SPRINGS   MOSUNNY   86  31  13 W20G32    30.11S
DIXON          FAIR      87  38  17 SW9       30.16S
RAWLINS        MOSUNNY   85  36  17 SW17G26   30.11F
SARATOGA       FAIR      84  36  17 W20G25    30.16F
LARAMIE        SUNNY     77  48  35 SW14      30.17S
CHEYENNE       SUNNY     84  47  27 W23G36    30.08S
TORRINGTON     MOSUNNY   95  48  20 W10       29.85F HX  91
PINE BLUFFS    FAIR      88  45  22 SW15      30.00S

$$



USA.gov is the U.S. government's official web portal to all federal, state and local government web resources and services.